[[{"header":{"parameterUnit":"m.s-1","parameterCategory":1,"la1":30.2992,"la2":30.254,"lo1":-89.0895,"lo2":-89.0443,"dy":0.0025,"dx":0.0025,"nx":19,"ny":19,"refTime":"2026-03-10T03:00:00:Z","depth":0,"parameterNumber":2,"parameterNumberName":"U-component_of_WINDS"},"data":[0,0,0,-1.0044,-1.0044,-1.0071,-1.0072,-1.0103,-1.0103,0,0,0,0,0,0,0,0,0,0,0,-1.0033,-1.0033,-1.0044,-1.0044,-1.0071,-1.0072,-1.0103,-1.0103,0,0,0,0,0,0,0,0,0,0,0,-1.0033,-1.0033,-1.0033,-1.0044,-1.0071,-1.0072,-1.0103,-1.0084,0,0,0,0,0,0,0,0,0,0,-1.0058,-1.0045,-1.0033,-1.0033,-1.0044,-1.0071,-1.0072,-1.0083,-1.0085,-1.0089,0,-1.0092,0,-1.0098,-1.0105,-1.0105,0,0,0,-1.0046,-1.0044,-1.0053,-1.0033,-1.0045,-1.0071,-1.006,-1.0084,-1.0087,-1.0092,-1.0092,-1.0093,-1.0098,-1.0105,-1.0106,-1.012,-1.012,0,0,-1.0045,-1.0037,-1.0052,-1.0055,-1.0049,-1.0059,-1.0061,-1.0086,-1.0086,-1.0092,-1.0094,-1.0099,-1.0106,-1.0106,-1.012,-1.012,0,0,0,-1.0039,-1.0036,-1.0045,-1.0053,-1.0058,-1.006,-1.0062,-1.0085,-1.0088,-1.0095,-1.0099,-1.0106,-1.0106,-1.012,-1.012,-1.011,0,0,0,-1.0038,-1.0032,-1.0044,-1.0039,-1.0058,-1.0072,-1.006,-1.0086,-1.0089,-1.0099,-1.0106,-1.0106,-1.012,-1.012,-1.011,-1.0106,0,0,0,-1.0032,-1.0031,-1.0034,-1.0039,-1.005,-1.0071,-1.0077,-1.0087,-1.0092,-1.0105,-1.0106,-1.012,-1.012,-1.011,-1.0107,-1.0107,0,0,0,-1.0023,-1.0026,-1.0034,-1.0038,-1.005,-1.0064,-1.0076,-1.0088,-1.0098,-1.0106,-1.012,-1.012,-1.011,-1.0107,-1.0107,-1.0106,-1.0104,0,0,-1.0022,-1.0025,-1.0028,-1.0037,-1.0048,-1.0061,-1.0071,-1.0089,-1.0098,-1.0112,-1.0113,-1.011,-1.0107,-1.0107,-1.0099,-1.0098,0,0,0,-1.0025,-1.0027,-1.0032,-1.004,-1.0053,-1.0064,-1.008,-1.0087,-1.0099,-1.0103,-1.011,-1.0109,-1.011,-1.0109,-1.0108,-1.0109,-1.012,-1.012,-1.012,-1.0011,-1.0022,-1.0028,-1.0041,-1.005,-1.0066,-1.0074,-1.0086,-1.0095,-1.0096,-1.0101,-1.0094,-1.0094,-1.0093,-1.0094,-1.0101,-1.0101,-1.0101,-1.0101,-1.001,-1.0014,-1.0025,-1.0035,-1.0046,-1.0055,-1.0071,-1.0077,-1.0087,-1.0092,-1.0093,-1.0098,-1.0091,-1.0092,-1.01,-1.01,-1.01,-1.01,-1.01,-1.0002,-1.0006,-1.0013,-1.0025,-1.0034,-1.0048,-1.0057,-1.0067,-1.0077,-1.0078,-1.0084,-1.0084,-1.0085,-1.008,-1.008,-1.008,-1.008,-1.008,-1.008,-0.9991,-0.9999,-1.0004,-1.0017,-1.0023,-1.0033,-1.0049,-1.0056,-1.0066,-1.0073,-1.0073,-1.0082,-1.0088,-1.0089,-1.008,-1.008,-1.008,-1.008,-1.008,-0.9985,-0.9988,-0.9996,-1.0002,-1.0017,-1.0025,-1.0038,-1.0051,-1.0058,-1.0062,-1.007,-1.0073,-1.0078,-1.0079,-1.008,-1.0068,-1.0068,-1.0068,-1.0068,-0.9978,-0.9981,-0.9991,-1.0,-1.0011,-1.0023,-1.0032,-1.0044,-1.0058,-1.0063,-1.0066,-1.0068,-1.0069,-1.0073,-1.0074,-1.0075,-1.0063,-1.0063,-1.0063,-0.9975,-0.9979,-0.9985,-0.9997,-1.0009,-1.002,-1.0029,-1.0039,-1.0055,-1.0063,-1.0067,-1.0067,-1.0071,-1.0072,-1.0079,-1.0081,-1.0083,0,0]},{"header":{"parameterUnit":"m.s-1","parameterCategory":1,"la1":30.2992,"la2":30.254,"lo1":-89.0895,"lo2":-89.0443,"dy":0.0025,"dx":0.0025,"nx":19,"ny":19,"refTime":"2026-03-10T03:00:00:Z","depth":0,"parameterNumber":3,"parameterNumberName":"V-component_of_WINDS"},"data":[0,0,0,3.9776,3.9778,3.991,3.991,4.0071,4.0072,0,0,0,0,0,0,0,0,0,0,0,3.9731,3.9732,3.9776,3.9779,3.991,3.991,4.007,4.0072,0,0,0,0,0,0,0,0,0,0,0,3.9731,3.9732,3.9733,3.9779,3.9909,3.991,4.007,3.9974,0,0,0,0,0,0,0,0,0,0,3.9848,3.9801,3.9732,3.9733,3.978,3.9909,3.991,3.9969,3.998,4.0008,0,4.003,0,4.0053,4.0082,4.0083,0,0,0,3.9783,3.9792,3.9833,3.9733,3.9781,3.9909,3.9852,3.9975,3.9987,4.0022,4.0032,4.0038,4.0056,4.0083,4.0084,4.0228,4.0229,0,0,3.9776,3.9752,3.9824,3.984,3.9818,3.9848,3.9856,3.9983,3.9993,4.0033,4.0042,4.0059,4.0084,4.0085,4.0228,4.0229,0,0,0,3.9752,3.9746,3.9784,3.9833,3.9857,3.9851,3.9861,3.9987,4.0002,4.0044,4.006,4.0085,4.0087,4.0228,4.0228,4.0229,0,0,0,3.9748,3.9732,3.9781,3.9767,3.9855,3.9923,3.9862,3.9993,4.0008,4.006,4.0085,4.0088,4.0227,4.0228,4.0228,4.0234,0,0,0,3.9725,3.973,3.9747,3.9765,3.9821,3.9922,3.9944,3.9997,4.0018,4.0083,4.0089,4.0227,4.0228,4.0227,4.0232,4.0267,0,0,0,3.9693,3.9744,3.9746,3.981,3.982,3.9921,3.9943,4.002,4.0075,4.0086,4.0227,4.0228,4.0227,4.0231,4.0266,4.0294,4.0302,0,0,3.9743,3.9749,3.9789,3.9795,3.9889,3.9903,3.9998,4.0072,4.01,4.0184,4.0188,4.0228,4.0232,4.0267,4.0355,4.0362,0,0,0,3.9797,3.9825,3.9856,3.9908,3.9966,4.0017,4.0079,4.0107,4.018,4.0138,4.025,4.0253,4.0275,4.0289,4.0295,4.0317,4.0233,4.0233,4.0233,3.9834,3.9869,3.9938,3.9989,4.004,4.0105,4.015,4.0199,4.0217,4.0244,4.0269,4.0318,4.0334,4.0339,4.0361,4.0285,4.0285,4.0285,4.0285,3.9914,3.9961,3.9987,4.0064,4.0101,4.0166,4.0232,4.0244,4.0312,4.0301,4.0322,4.0309,4.0345,4.0366,4.0285,4.0285,4.0285,4.0285,4.0285,3.9944,3.9973,4.0007,4.0089,4.0148,4.0198,4.0263,4.0294,4.0323,4.0344,4.0377,4.0377,4.0383,4.0357,4.0357,4.0357,4.0357,4.0357,4.0357,3.9963,4.0001,4.0051,4.012,4.0159,4.0216,4.0283,4.0324,4.0377,4.0394,4.0395,4.0413,4.0341,4.0324,4.036,4.036,4.0359,4.0359,4.0359,4.0035,4.0024,4.0102,4.0142,4.0227,4.0286,4.0325,4.0405,4.0443,4.0475,4.049,4.043,4.0438,4.0434,4.042,4.048,4.048,4.048,4.048,4.0062,4.0069,4.0158,4.0221,4.0285,4.0329,4.042,4.0475,4.0529,4.0556,4.0551,4.0535,4.0529,4.0541,4.0534,4.0522,4.0606,4.0606,4.0606,4.011,4.0125,4.0195,4.0249,4.0318,4.0378,4.0466,4.0538,4.0598,4.0612,4.0578,4.0573,4.0547,4.0536,4.055,4.0539,4.0517,0,0]}]]